Tracking 29747 objects as of 9-Oct-2024
HD Live streaming from Space Station
objects crossing your sky now

SL-14 DEB

Track SL-14 DEB now!
10-day predictions


NORAD ID: 45318
Int'l Code: 1991-056BG
Perigee: 1,190.1 km
Apogee: 1,199.7 km
Inclination: 82.6 °
Period: 109.2 minutes
Semi major axis: 7565 km
RCS: Unknown
Launch date: August 15, 1991
Source: Commonwealth of Independent States (former USSR) (CIS)
Launch site: PLESETSK MISSILE AND SPACE COMPLEX (PKMTR)

Note: This is SATELLITE DEBRIS
Your satellite tracking list
Your tracking list is empty




NASA's NSSDC Master Catalog

Two Line Element Set (TLE):
1 45318U 91056BG  24282.53168943  .00000999  00000-0  24826-2 0  9990
2 45318  82.5715 213.9106 0006351 169.8789 190.2464 13.19213192222246
Source of the keplerian elements: AFSPC